N225FB KSAV-KBHM

Flight info

Callsign N225FB
Flight time 0h 58m
Altitude 43000
Route SMALZ WIGVO DBN MCN LGC WANDS
Aircraft C750/M-SBDE3FGHRWXY/S

Departure

Time 2026-04-27 20:22
Airport Savannah Hilton Head International Airport (KSAV)

Arrival

Time 2026-04-27 21:20
Airport Birmingham-Shuttlesworth International Airport (KBHM)
Time Latitude Longitude Altitude Speed Heading
2026-04-27 20:13 32.12603 -81.19367 61 ft 0 kts 111°
2026-04-27 20:15 32.12603 -81.19365 56 ft 1 kts 108°
2026-04-27 20:15 32.12602 -81.19359 57 ft 0 kts 99°
2026-04-27 20:17 32.12602 -81.19358 57 ft 1 kts 98°
2026-04-27 20:17 32.12603 -81.19347 60 ft 3 kts 81°
2026-04-27 20:18 32.12638 -81.19321 60 ft 6 kts
2026-04-27 20:18 32.12674 -81.19356 61 ft 8 kts 290°
2026-04-27 20:18 32.12686 -81.19429 61 ft 10 kts 279°
2026-04-27 20:18 32.12691 -81.19526 60 ft 14 kts 270°
2026-04-27 20:19 32.12692 -81.19662 56 ft 19 kts 270°
2026-04-27 20:19 32.12671 -81.19796 50 ft 15 kts 218°
2026-04-27 20:19 32.12566 -81.19812 51 ft 16 kts 181°
2026-04-27 20:19 32.12451 -81.19811 50 ft 17 kts 183°
2026-04-27 20:20 32.12320 -81.19812 46 ft 21 kts 181°
2026-04-27 20:20 32.12166 -81.19810 42 ft 23 kts 181°
2026-04-27 20:20 32.12001 -81.19811 40 ft 25 kts 179°
2026-04-27 20:20 32.11821 -81.19809 35 ft 27 kts 181°
2026-04-27 20:21 32.11680 -81.19871 34 ft 21 kts 240°
2026-04-27 20:21 32.11727 -81.20001 37 ft 19 kts 347°
2026-04-27 20:21 32.11872 -81.20008 41 ft 39 kts 359°
2026-04-27 20:21 32.12572 -81.20016 89 ft 144 kts 360°
2026-04-27 20:22 32.13603 -81.20052 865 ft 148 kts 359°
2026-04-27 20:22 32.14599 -81.20505 1617 ft 181 kts 320°
2026-04-27 20:22 32.15266 -81.21945 2126 ft 204 kts 294°
2026-04-27 20:22 32.15908 -81.23476 2939 ft 218 kts 304°
2026-04-27 20:23 32.16927 -81.24902 3709 ft 245 kts 319°
2026-04-27 20:23 32.18319 -81.26129 4469 ft 252 kts 326°
2026-04-27 20:23 32.19800 -81.27326 5209 ft 260 kts 324°
2026-04-27 20:23 32.21227 -81.28617 5936 ft 262 kts 321°
2026-04-27 20:24 32.22646 -81.29977 6655 ft 264 kts 321°
2026-04-27 20:24 32.24096 -81.31331 7349 ft 268 kts 322°
2026-04-27 20:24 32.25588 -81.32680 8068 ft 271 kts 322°
2026-04-27 20:24 32.27088 -81.34034 8800 ft 271 kts 322°
2026-04-27 20:25 32.28588 -81.35405 9574 ft 275 kts 321°
2026-04-27 20:25 32.30101 -81.36794 10314 ft 277 kts 321°
2026-04-27 20:25 32.31124 -81.37731 10798 ft 285 kts 321°
2026-04-27 20:25 32.33286 -81.39701 11794 ft 301 kts 321°
2026-04-27 20:26 32.34394 -81.40712 12297 ft 308 kts 321°
2026-04-27 20:26 32.36117 -81.42286 13112 ft 317 kts 321°
2026-04-27 20:26 32.37881 -81.43902 13884 ft 325 kts 321°
2026-04-27 20:26 32.39686 -81.45558 14582 ft 332 kts 321°
2026-04-27 20:27 32.41522 -81.47242 15290 ft 337 kts 321°
2026-04-27 20:27 32.43392 -81.48958 16015 ft 342 kts 321°
2026-04-27 20:27 32.45290 -81.50698 16758 ft 347 kts 321°
2026-04-27 20:27 32.47215 -81.52464 17523 ft 352 kts 321°
2026-04-27 20:28 32.49167 -81.54257 18304 ft 358 kts 321°
2026-04-27 20:28 32.51097 -81.56133 18954 ft 361 kts 314°
2026-04-27 20:28 32.52429 -81.58663 19446 ft 366 kts 295°
2026-04-27 20:28 32.53148 -81.61570 20096 ft 372 kts 279°
2026-04-27 20:29 32.53152 -81.64659 20789 ft 380 kts 264°
2026-04-27 20:29 32.52589 -81.67732 21982 ft 384 kts 256°
2026-04-27 20:29 32.51945 -81.70787 22630 ft 378 kts 258°
2026-04-27 20:29 32.51370 -81.73829 23431 ft 380 kts 260°
2026-04-27 20:30 32.50840 -81.76904 24167 ft 382 kts 261°
2026-04-27 20:30 32.50277 -81.79994 24856 ft 385 kts 260°
2026-04-27 20:30 32.49666 -81.83085 25558 ft 387 kts 259°
2026-04-27 20:30 32.49045 -81.86190 26272 ft 387 kts 260°
2026-04-27 20:31 32.48448 -81.89304 26999 ft 388 kts 261°
2026-04-27 20:31 32.47865 -81.92426 27745 ft 388 kts 261°
2026-04-27 20:31 32.47272 -81.95550 28529 ft 388 kts 261°
2026-04-27 20:31 32.46666 -81.98663 29349 ft 388 kts 261°
2026-04-27 20:32 32.46073 -82.01772 30183 ft 385 kts 263°
2026-04-27 20:32 32.45913 -82.04902 30864 ft 379 kts 276°
2026-04-27 20:32 32.46259 -82.07970 31586 ft 374 kts 282°
2026-04-27 20:32 32.46720 -82.10991 32341 ft 371 kts 282°
2026-04-27 20:33 32.47119 -82.14003 33109 ft 369 kts 281°
2026-04-27 20:33 32.47479 -82.17001 33898 ft 366 kts 282°
2026-04-27 20:33 32.47859 -82.19932 34617 ft 362 kts 282°
2026-04-27 20:33 32.48281 -82.22902 35322 ft 359 kts 283°
2026-04-27 20:34 32.48687 -82.25762 36034 ft 355 kts 283°
2026-04-27 20:34 32.49074 -82.28637 36769 ft 352 kts 282°
2026-04-27 20:34 32.49450 -82.31486 37533 ft 348 kts 282°
2026-04-27 20:34 32.49831 -82.34312 38324 ft 344 kts 283°
2026-04-27 20:35 32.50213 -82.37088 39056 ft 339 kts 283°
2026-04-27 20:35 32.50587 -82.39825 39721 ft 334 kts 283°
2026-04-27 20:35 32.50950 -82.42521 40306 ft 328 kts 283°
2026-04-27 20:35 32.51304 -82.45169 41004 ft 322 kts 282°
2026-04-27 20:36 32.51654 -82.47763 41735 ft 315 kts 282°
2026-04-27 20:36 32.51997 -82.50299 42487 ft 308 kts 282°
2026-04-27 20:36 32.52331 -82.52783 43051 ft 307 kts 282°
2026-04-27 20:36 32.52674 -82.55312 43017 ft 321 kts 282°
2026-04-27 20:37 32.53038 -82.58013 43026 ft 334 kts 282°
2026-04-27 20:37 32.53407 -82.60782 43063 ft 347 kts 282°
2026-04-27 20:37 32.53783 -82.63616 43090 ft 359 kts 282°
2026-04-27 20:37 32.54178 -82.66590 43116 ft 371 kts 281°
2026-04-27 20:38 32.54586 -82.69655 43142 ft 382 kts 281°
2026-04-27 20:38 32.55007 -82.72823 43166 ft 394 kts 281°
2026-04-27 20:38 32.55876 -82.79410 43203 ft 415 kts 281°
2026-04-27 20:39 32.56865 -82.86306 43261 ft 433 kts 283°
2026-04-27 20:39 32.58023 -82.93463 43278 ft 450 kts 283°
2026-04-27 20:40 32.59182 -83.00842 43274 ft 457 kts 283°
2026-04-27 20:40 32.60350 -83.08241 43270 ft 456 kts 283°
2026-04-27 20:41 32.61520 -83.15640 43212 ft 457 kts 283°
2026-04-27 20:41 32.62670 -83.23042 43141 ft 456 kts 283°
2026-04-27 20:42 32.63834 -83.30447 43082 ft 456 kts 283°
2026-04-27 20:42 32.64980 -83.37852 43023 ft 457 kts 283°
2026-04-27 20:43 32.66131 -83.45266 43210 ft 457 kts 283°
2026-04-27 20:43 32.67275 -83.52685 43239 ft 457 kts 283°
2026-04-27 20:44 32.68401 -83.60045 43257 ft 455 kts 283°
2026-04-27 20:44 32.69721 -83.67381 43257 ft 454 kts 288°
2026-04-27 20:45 32.71463 -83.74586 43259 ft 454 kts 288°
2026-04-27 20:45 32.73152 -83.81818 43211 ft 454 kts 287°
2026-04-27 20:46 32.74847 -83.89047 43154 ft 453 kts 288°
2026-04-27 20:46 32.76544 -83.96243 43087 ft 451 kts 288°
2026-04-27 20:47 32.78212 -84.03442 43084 ft 449 kts 287°
2026-04-27 20:47 32.79035 -84.06973 42366 ft 439 kts 288°
2026-04-27 20:47 32.79841 -84.10424 41588 ft 427 kts 288°
2026-04-27 20:48 32.80622 -84.13785 40837 ft 416 kts 288°
2026-04-27 20:48 32.81380 -84.17059 40119 ft 405 kts 288°
2026-04-27 20:48 32.82119 -84.20252 39421 ft 395 kts 288°
2026-04-27 20:48 32.82839 -84.23360 38737 ft 386 kts 288°
2026-04-27 20:49 32.83548 -84.26416 37913 ft 380 kts 288°
2026-04-27 20:49 32.84242 -84.29404 37117 ft 380 kts 288°
2026-04-27 20:49 32.84946 -84.32444 36342 ft 384 kts 288°
2026-04-27 20:49 32.85657 -84.35528 35602 ft 390 kts 288°
2026-04-27 20:50 32.86385 -84.38696 34661 ft 393 kts 287°
2026-04-27 20:50 32.87097 -84.41799 33972 ft 395 kts 287°
2026-04-27 20:50 32.87822 -84.44961 33175 ft 397 kts 287°
2026-04-27 20:50 32.88550 -84.48139 32415 ft 399 kts 287°
2026-04-27 20:51 32.89281 -84.51333 31674 ft 401 kts 287°
2026-04-27 20:51 32.90015 -84.54544 30968 ft 404 kts 287°
2026-04-27 20:51 32.90755 -84.57793 30264 ft 407 kts 287°
2026-04-27 20:51 32.91492 -84.61032 29476 ft 404 kts 287°
2026-04-27 20:52 32.92226 -84.64252 28693 ft 402 kts 287°
2026-04-27 20:52 32.92961 -84.67466 27909 ft 402 kts 287°
2026-04-27 20:52 32.93695 -84.70687 27160 ft 404 kts 287°
2026-04-27 20:52 32.94427 -84.73915 26430 ft 404 kts 287°
2026-04-27 20:53 32.95156 -84.77144 25714 ft 403 kts 287°
2026-04-27 20:53 32.95885 -84.80372 25010 ft 404 kts 287°
2026-04-27 20:53 32.96616 -84.83600 24322 ft 404 kts 286°
2026-04-27 20:53 32.97348 -84.86836 23641 ft 405 kts 286°
2026-04-27 20:54 32.98792 -84.93257 22065 ft 408 kts 285°
2026-04-27 20:54 32.99518 -84.96491 21334 ft 395 kts 286°
2026-04-27 20:54 33.00212 -84.99592 20600 ft 382 kts 286°
2026-04-27 20:55 33.00884 -85.02586 19891 ft 377 kts 286°
2026-04-27 20:55 33.01567 -85.05626 19169 ft 374 kts 286°
2026-04-27 20:55 33.02228 -85.08571 18500 ft 372 kts 285°
2026-04-27 20:55 33.02892 -85.11545 17721 ft 369 kts 285°
2026-04-27 20:56 33.03493 -85.14499 16946 ft 366 kts 282°
2026-04-27 20:56 33.03842 -85.17486 16193 ft 363 kts 277°
2026-04-27 20:56 33.04053 -85.20469 15448 ft 359 kts 276°
2026-04-27 20:56 33.04296 -85.23423 14716 ft 356 kts 278°
2026-04-27 20:57 33.04635 -85.26331 13998 ft 352 kts 279°
2026-04-27 20:57 33.05001 -85.29206 13107 ft 349 kts 279°
2026-04-27 20:57 33.05326 -85.32057 12349 ft 346 kts 278°
2026-04-27 20:57 33.05612 -85.34893 11612 ft 343 kts 278°
2026-04-27 20:58 33.05894 -85.37694 10884 ft 339 kts 278°
2026-04-27 20:58 33.06191 -85.40453 10189 ft 327 kts 279°
2026-04-27 20:58 33.06469 -85.42991 9956 ft 297 kts 279°
2026-04-27 20:58 33.06715 -85.45298 9993 ft 268 kts 279°
2026-04-27 20:59 33.06951 -85.47519 9969 ft 285 kts 279°
2026-04-27 20:59 33.07209 -85.49870 9643 ft 281 kts 279°
2026-04-27 20:59 33.07453 -85.52152 9311 ft 276 kts 279°
2026-04-27 20:59 33.07692 -85.54416 8973 ft 275 kts 279°
2026-04-27 21:00 33.07932 -85.56673 8648 ft 275 kts 278°
2026-04-27 21:00 33.08173 -85.58937 8327 ft 275 kts 278°
2026-04-27 21:00 33.08412 -85.61199 8001 ft 276 kts 278°
2026-04-27 21:00 33.08651 -85.63466 7679 ft 275 kts 278°
2026-04-27 21:01 33.08889 -85.65729 7359 ft 275 kts 278°
2026-04-27 21:01 33.09128 -85.68003 6872 ft 278 kts 278°
2026-04-27 21:01 33.09368 -85.70290 6394 ft 277 kts 279°
2026-04-27 21:01 33.09603 -85.72555 5994 ft 271 kts 278°
2026-04-27 21:02 33.09830 -85.74731 6001 ft 263 kts 278°
2026-04-27 21:02 33.10064 -85.76934 6012 ft 270 kts 278°
2026-04-27 21:02 33.10298 -85.79162 6031 ft 271 kts 278°
2026-04-27 21:02 33.10529 -85.81401 5992 ft 274 kts 278°
2026-04-27 21:03 33.10761 -85.83650 5992 ft 274 kts 278°
2026-04-27 21:03 33.10993 -85.85893 6005 ft 272 kts 278°
2026-04-27 21:03 33.11227 -85.88142 6001 ft 274 kts 278°
2026-04-27 21:03 33.11462 -85.90396 6007 ft 274 kts 278°
2026-04-27 21:04 33.11692 -85.92644 6005 ft 274 kts 278°
2026-04-27 21:04 33.11922 -85.94900 5996 ft 275 kts 278°
2026-04-27 21:04 33.12150 -85.97120 5995 ft 272 kts 278°
2026-04-27 21:04 33.12380 -85.99362 5996 ft 273 kts 279°
2026-04-27 21:05 33.12611 -86.01610 5996 ft 274 kts 278°
2026-04-27 21:05 33.12845 -86.03871 5965 ft 278 kts 277°
2026-04-27 21:05 33.13076 -86.06116 6009 ft 272 kts 278°
2026-04-27 21:05 33.13301 -86.08366 6005 ft 274 kts 278°
2026-04-27 21:06 33.13528 -86.10615 6015 ft 274 kts 278°
2026-04-27 21:06 33.13759 -86.12875 6010 ft 275 kts 278°
2026-04-27 21:06 33.13989 -86.15133 6001 ft 274 kts 277°
2026-04-27 21:06 33.14215 -86.17380 6017 ft 272 kts 278°
2026-04-27 21:07 33.14440 -86.19615 5955 ft 268 kts 274°
2026-04-27 21:07 33.14672 -86.21829 6013 ft 271 kts 274°
2026-04-27 21:07 33.14897 -86.24054 6012 ft 270 kts 275°
2026-04-27 21:07 33.15115 -86.26298 6010 ft 271 kts 273°
2026-04-27 21:08 33.15336 -86.28506 6008 ft 268 kts 274°
2026-04-27 21:08 33.15556 -86.30725 6013 ft 268 kts 274°
2026-04-27 21:08 33.15776 -86.32935 6002 ft 271 kts 275°
2026-04-27 21:08 33.15997 -86.35148 6008 ft 268 kts 274°
2026-04-27 21:09 33.16535 -86.37305 5958 ft 278 kts 296°
2026-04-27 21:09 33.17629 -86.39196 6018 ft 279 kts 303°
2026-04-27 21:09 33.18772 -86.41065 6021 ft 277 kts 302°
2026-04-27 21:09 33.19871 -86.42955 6029 ft 277 kts 301°
2026-04-27 21:10 33.20951 -86.44858 6012 ft 276 kts 301°
2026-04-27 21:10 33.22038 -86.46755 6018 ft 276 kts 302°
2026-04-27 21:10 33.23134 -86.48640 6029 ft 277 kts 302°
2026-04-27 21:10 33.24235 -86.50524 6010 ft 276 kts 302°
2026-04-27 21:11 33.25330 -86.52408 6012 ft 276 kts 302°
2026-04-27 21:11 33.26424 -86.54296 6012 ft 275 kts 301°
2026-04-27 21:11 33.27516 -86.56182 5998 ft 276 kts 301°
2026-04-27 21:11 33.28609 -86.58071 5840 ft 278 kts 301°
2026-04-27 21:12 33.29733 -86.59966 5588 ft 280 kts 302°
2026-04-27 21:12 33.30852 -86.61835 5344 ft 280 kts 303°
2026-04-27 21:12 33.31977 -86.63724 5092 ft 279 kts 302°
2026-04-27 21:12 33.33095 -86.65616 4851 ft 278 kts 302°
2026-04-27 21:13 33.34209 -86.67504 4605 ft 277 kts 302°
2026-04-27 21:13 33.35300 -86.69347 4355 ft 263 kts 302°
2026-04-27 21:13 33.36334 -86.71086 4072 ft 249 kts 302°
2026-04-27 21:13 33.37297 -86.72721 4007 ft 229 kts 302°
2026-04-27 21:14 33.38179 -86.74218 4003 ft 211 kts 303°
2026-04-27 21:14 33.38998 -86.75605 4022 ft 201 kts 301°
2026-04-27 21:14 33.39538 -86.76520 4013 ft 206 kts 302°
2026-04-27 21:14 33.40293 -86.77968 3975 ft 204 kts 290°
2026-04-27 21:15 33.40839 -86.79519 3907 ft 203 kts 289°
2026-04-27 21:15 33.41416 -86.81063 3637 ft 202 kts 292°
2026-04-27 21:15 33.42016 -86.82573 3402 ft 201 kts 291°
2026-04-27 21:15 33.42618 -86.84109 3169 ft 205 kts 291°
2026-04-27 21:16 33.43265 -86.85639 2904 ft 208 kts 299°
2026-04-27 21:16 33.44280 -86.86890 2601 ft 211 kts 321°
2026-04-27 21:16 33.45570 -86.87682 2288 ft 205 kts 342°
2026-04-27 21:16 33.46881 -86.87936 2283 ft 180 kts 359°
2026-04-27 21:17 33.48096 -86.87754 2307 ft 179 kts 18°
2026-04-27 21:17 33.49314 -86.87117 2306 ft 195 kts 36°
2026-04-27 21:17 33.50314 -86.86077 2314 ft 195 kts 54°
2026-04-27 21:17 33.51072 -86.84778 2330 ft 192 kts 60°
2026-04-27 21:18 33.51804 -86.83483 2425 ft 182 kts 58°
2026-04-27 21:18 33.52534 -86.82225 2249 ft 183 kts 57°
2026-04-27 21:18 33.53227 -86.81038 2037 ft 167 kts 59°
2026-04-27 21:18 33.53904 -86.79930 1673 ft 161 kts 59°
2026-04-27 21:19 33.54538 -86.78845 1333 ft 159 kts 58°
2026-04-27 21:19 33.55137 -86.77747 993 ft 154 kts 55°
2026-04-27 21:19 33.55705 -86.76748 677 ft 131 kts 53°
2026-04-27 21:20 33.56336 -86.75709 625 ft 11 kts 61°
2026-04-27 21:20 33.56369 -86.75629 627 ft 13 kts 61°
2026-04-27 21:20 33.56423 -86.75520 634 ft 18 kts 57°
2026-04-27 21:20 33.56504 -86.75373 624 ft 24 kts 54°
2026-04-27 21:21 33.56603 -86.75189 628 ft 28 kts 51°
2026-04-27 21:21 33.56639 -86.75026 628 ft 16 kts 125°
2026-04-27 21:21 33.56609 -86.74933 627 ft 14 kts 103°
2026-04-27 21:21 33.56631 -86.74813 629 ft 14 kts 56°
2026-04-27 21:22 33.56693 -86.74698 629 ft 19 kts 53°
2026-04-27 21:22 33.56707 -86.74593 628 ft 15 kts 161°
2026-04-27 21:22 33.56643 -86.74513 626 ft 18 kts 87°
2026-04-27 21:22 33.56636 -86.74393 637 ft 15 kts 120°
2026-04-27 21:23 33.56568 -86.74342 631 ft 1 kts 245°
2026-04-27 21:23 33.56568 -86.74343 631 ft 0 kts 252°